CW5461 Weather Reports


time (UTC)temp
C
wind
direction
speed
KPH
gust
KPH
rain 1hr
cm
rain 24hr
cm
rain mn
cm
humidity
%
barometer
mb
20260507223509 13 138 0.0 17.7 0.00 0.08 0.00 38 1003.9
20260507223030 13 309 3.2 17.7 0.00 0.08 0.00 35 1003.8
20260507222514 13 266 3.2 14.5 0.00 0.08 0.00 36 1003.7
20260507222010 13 263 6.4 14.5 0.00 0.08 0.00 35 1003.6
20260507221524 14 249 3.2 12.9 0.00 0.08 0.00 35 1003.6
20260507221013 15 321 3.2 14.5 0.00 0.08 0.00 33 1003.6
20260507220504 14 307 1.6 14.5 0.00 0.10 0.00 41 1003.6
20260507220011 14 213 4.8 11.3 0.00 0.10 0.00 34 1003.6
20260507215505 14 36 3.2 6.4 0.00 0.10 0.00 35 1003.6
20260507215006 13 315 1.6 4.8 0.00 0.13 0.00 37 1003.5
20260507214515 13 251 3.2 4.8 0.00 0.13 0.00 36 1003.5
20260507214008 13 243 1.6 12.9 0.00 0.15 0.00 40 1003.5
20260507213507 13 19 0.0 14.5 0.00 0.15 0.00 35 1003.5
20260507213017 15 318 3.2 14.5 0.00 0.18 0.00 34 1003.4
20260507212509 15 226 4.8 16.1 0.00 0.18 0.00 34 1003.4
20260507212011 15 243 1.6 16.1 0.00 0.20 0.00 35 1003.3
20260507211521 15 317 4.8 16.1 0.00 0.20 0.00 34 1003.3
20260507211008 15 244 6.4 14.5 0.00 0.23 0.00 32 1003.3
20260507210507 16 271 8.0 14.5 0.00 0.25 0.00 32 1003.2
20260507210026 16 246 3.2 12.9 0.00 0.28 0.00 35 1003.1
20260507205509 15 233 3.2 12.9 0.00 0.28 0.00 37 1003.1
20260507205005 14 263 4.8 20.9 0.00 0.30 0.00 35 1003.2
20260507204517 15 245 6.4 20.9 0.00 0.30 0.00 34 1003.2
20260507204006 16 254 3.2 12.9 0.00 0.33 0.00 34 1003.1
20260507203506 16 236 6.4 14.5 0.00 0.38 0.00 33 1003.1
20260507203024 16 268 4.8 14.5 0.00 0.38 0.00 34 1003.2
20260507202512 17 231 6.4 12.9 0.00 0.43 0.00 33 1003.1
20260507202010 16 270 4.8 16.1 0.00 0.46 0.00 33 1003.1
20260507201520 17 330 3.2 16.1 0.00 0.48 0.00 35 1003.1
20260507201009 17 267 4.8 19.3 0.00 0.48 0.00 38 1003.2
20260507200508 16 240 9.7 19.3 0.00 0.51 0.00 35 1003.1
20260507200025 16 244 6.4 16.1 0.00 0.51 0.00 33 1003.1
20260507195509 16 9 1.6 14.5 0.00 0.51 0.00 38 1003.1
20260507195012 15 263 3.2 14.5 0.00 0.53 0.00 34 1003.3
20260507194528 16 254 3.2 14.5 0.00 0.53 0.00 34 1003.4
20260507194007 17 256 3.2 14.5 0.00 0.53 0.00 35 1003.5
20260507193507 17 171 6.4 14.5 0.00 0.53 0.00 32 1003.5
20260507193017 16 55 1.6 14.5 0.00 0.56 0.00 37 1003.5
20260507192513 14 248 3.2 8.0 0.00 0.56 0.00 42 1003.6
20260507192009 14 322 3.2 8.0 0.00 0.58 0.00 39 1003.6
20260507191535 14 242 1.6 8.0 0.00 0.58 0.00 40 1003.6
20260507191015 15 315 1.6 12.9 0.00 0.61 0.00 39 1003.7
20260507190509 15 213 3.2 12.9 0.00 0.64 0.00 42 1003.8
20260507190021 15 277 4.8 12.9 0.00 0.64 0.00 40 1003.8
20260507185510 16 352 1.6 11.3 0.00 0.66 0.00 38 1003.9
20260507185009 16 265 4.8 11.3 0.00 0.69 0.00 37 1003.8
20260507184526 16 124 3.2 14.5 0.00 0.69 0.00 34 1003.7
20260507184008 17 341 4.8 17.7 0.00 0.74 0.00 38 1003.7
20260507183511 16 14 8.0 17.7 0.00 0.74 0.00 39 1003.8
20260507183026 15 26 3.2 14.5 0.00 0.74 0.00 39 1003.8
20260507182507 15 323 3.2 14.5 0.00 0.76 0.00 40 1004.0
20260507182009 17 244 3.2 17.7 0.00 0.81 0.00 41 1003.9
20260507181513 15 253 4.8 17.7 0.00 0.89 0.00 39 1004.0
20260507181008 15 244 1.6 16.1 0.00 0.91 0.00 43 1004.0
20260507180511 16 103 1.6 17.7 0.00 0.91 0.00 42 1003.9
20260507180023 17 279 9.7 17.7 0.00 0.91 0.00 42 1003.9
20260507175511 17 270 3.2 17.7 0.00 0.91 0.00 42 1003.9
20260507175009 17 311 8.0 17.7 0.00 0.91 0.00 37 1003.7
20260507174535 17 224 4.8 14.5 0.00 0.91 0.00 40 1003.9
20260507174015 16 257 3.2 11.3 0.00 0.91 0.00 40 1003.8
20260507173507 16 237 3.2 8.0 0.00 0.91 0.00 49 1004.0
20260507173048 15 211 1.6 8.0 0.00 0.91 0.00 48 1004.1
20260507172509 16 227 1.6 11.3 0.00 0.91 0.00 47 1004.0
20260507172012 16 360 3.2 11.3 0.00 0.91 0.00 50 1004.1
20260507171523 15 277 4.8 12.9 0.00 0.91 0.00 51 1004.1
20260507171006 15 266 4.8 17.7 0.00 0.91 0.00 52 1004.3
20260507170508 15 284 6.4 20.9 0.00 0.91 0.00 48 1004.4
20260507170020 16 256 9.7 20.9 0.00 0.91 0.00 45 1004.3
20260507165509 16 221 4.8 16.1 0.00 0.91 0.00 47 1004.4
20260507165008 16 246 4.8 16.1 0.00 0.91 0.00 56 1004.6
20260507164523 14 217 3.2 9.7 0.00 0.91 0.00 55 1004.6
20260507164013 14 240 1.6 14.5 0.00 0.91 0.00 55 1004.7
20260507163514 15 271 4.8 20.9 0.00 0.91 0.00 52 1004.7
20260507163028 16 277 6.4 20.9 0.00 0.91 0.00 49 1004.7
20260507162515 16 234 8.0 19.3 0.00 0.91 0.00 48 1004.7
20260507162006 16 269 1.6 22.5 0.00 0.91 0.00 58 1004.7
20260507161520 15 263 4.8 22.5 0.00 0.91 0.00 52 1004.8
20260507161013 16 225 8.0 20.9 0.00 0.91 0.00 52 1004.7
20260507160506 15 246 8.0 20.9 0.00 0.91 0.00 51 1004.8
20260507160028 15 248 8.0 17.7 0.00 0.91 0.00 52 1004.8
20260507155515 16 263 4.8 17.7 0.00 0.91 0.00 49 1004.9
20260507155006 16 224 4.8 14.5 0.00 0.91 0.00 48 1005.0
20260507154504 16 246 6.4 16.1 0.00 0.91 0.00 52 1005.0
20260507154004 15 233 6.4 17.7 0.00 0.91 0.00 53 1005.2
20260507153504 13 284 6.4 17.7 0.00 0.91 0.00 56 1005.4
20260507153005 14 254 4.8 16.1 0.00 0.91 0.00 53 1005.3
20260507152504 15 213 6.4 16.1 0.00 0.91 0.00 51 1005.2
20260507152004 13 276 3.2 19.3 0.00 0.91 0.00 52 1005.4
20260507151522 14 207 8.0 19.3 0.00 0.91 0.00 49 1005.5
20260507151005 15 242 3.2 16.1 0.00 0.91 0.00 51 1005.5
20260507150509 14 274 3.2 16.1 0.00 0.91 0.00 54 1005.5
20260507150022 16 244 6.4 17.7 0.00 0.91 0.00 55 1005.5
20260507145507 15 282 4.8 17.7 0.00 0.91 0.00 57 1005.4
20260507145016 13 248 8.0 17.7 0.00 0.91 0.00 55 1005.6
20260507144525 14 211 8.0 17.7 0.00 0.91 0.00 53 1005.5
20260507144008 15 235 6.4 14.5 0.00 0.91 0.00 55 1005.4
20260507143505 15 236 4.8 12.9 0.00 0.91 0.00 54 1005.2
20260507143003 15 275 4.8 12.9 0.00 0.91 0.00 52 1005.2
20260507142505 15 313 3.2 12.9 0.00 0.91 0.00 54 1005.2
20260507142011 15 21 0.0 14.5 0.00 0.91 0.00 59 1005.4
20260507141510 15 286 3.2 14.5 0.00 0.91 0.00 57 1005.3
20260507141007 15 252 6.4 14.5 0.00 0.91 0.00 58 1005.4
20260507140505 15 312 1.6 12.9 0.00 0.91 0.00 55 1005.2
20260507140012 14 317 1.6 12.9 0.00 0.91 0.00 57 1005.3
20260507135506 14 261 6.4 12.9 0.00 0.91 0.00 55 1005.4
20260507135008 14 271 4.8 14.5 0.00 0.91 0.00 61 1005.4
20260507134524 14 319 3.2 14.5 0.00 0.91 0.00 56 1005.5
20260507134011 14 288 3.2 14.5 0.00 0.91 0.00 60 1005.5
20260507133511 13 66 3.2 14.5 0.00 0.91 0.00 61 1005.6
20260507133033 13 60 1.6 8.0 0.00 0.91 0.00 60 1005.7
20260507132504 13 231 1.6 9.7 0.00 0.91 0.00 63 1005.8
20260507132003 13 267 3.2 12.9 0.00 0.91 0.00 63 1005.8
20260507131511 13 219 4.8 12.9 0.00 0.91 0.00 66 1005.7
20260507131009 12 349 3.2 14.5 0.00 0.91 0.00 65 1005.6
20260507130505 12 246 4.8 14.5 0.00 0.91 0.00 69 1005.6
20260507130011 12 112 3.2 9.7 0.00 0.91 0.00 70 1005.6
20260507125507 12 271 4.8 9.7 0.00 0.91 0.00 69 1005.7
20260507125011 12 219 4.8 6.4 0.00 0.91 0.00 71 1005.7
20260507124528 12 288 0.0 11.3 0.00 0.91 0.00 74 1005.8
20260507124006 11 269 1.6 11.3 0.00 0.91 0.00 76 1005.9
20260507123508 11 206 3.2 8.0 0.00 0.91 0.00 76 1005.8
20260507123037 11 208 3.2 8.0 0.00 0.91 0.00 76 1005.9
20260507122511 11 252 1.6 6.4 0.00 0.91 0.00 79 1006.0
20260507122012 11 284 0.0 6.4 0.00 0.91 0.00 79 1006.0
20260507121524 10 300 1.6 6.4 0.00 0.91 0.00 82 1006.0
20260507121003 10 265 3.2 6.4 0.00 0.91 0.00 81 1006.0
20260507120504 10 221 3.2 4.8 0.00 0.91 0.00 81 1006.0
20260507120007 10 251 1.6 4.8 0.00 0.91 0.00 84 1005.9
20260507115506 10 267 1.6 4.8 0.00 0.91 0.00 86 1005.9
20260507115008 9 263 0.0 3.2 0.00 0.91 0.00 86 1006.0
20260507114525 8 244 0.0 3.2 0.00 0.91 0.00 87 1005.9
20260507114008 8 334 0.0 3.2 0.00 0.91 0.00 88 1006.0
20260507113509 8 334 0.0 3.2 0.00 0.91 0.00 88 1006.0
20260507113017 7 263 0.0 3.2 0.00 0.91 0.00 88 1006.1
20260507112511 7 254 0.0 3.2 0.00 0.91 0.00 88 1005.9
20260507112011 7 266 0.0 3.2 0.00 0.91 0.00 88 1005.8
20260507111522 7 238 0.0 3.2 0.00 0.91 0.00 88 1005.9
20260507111009 7 238 0.0 3.2 0.00 0.91 0.00 89 1005.8
20260507110507 7 238 0.0 3.2 0.00 0.91 0.00 89 1005.7
20260507110008 7 238 0.0 1.6 0.00 0.91 0.00 89 1005.8
20260507105506 7 234 0.0 1.6 0.00 0.91 0.00 89 1005.8
20260507105007 7 234 0.0 3.2 0.00 0.91 0.00 89 1005.6
20260507104512 7 234 0.0 3.2 0.00 0.91 0.00 89 1005.6
20260507104011 7 234 0.0 1.6 0.00 0.91 0.00 89 1005.7
20260507103509 7 234 0.0 3.2 0.00 0.91 0.00 89 1006.0
20260507103019 7 234 0.0 3.2 0.00 0.91 0.00 89 1005.8
20260507102507 7 299 0.0 3.2 0.00 0.91 0.00 89 1005.7
20260507102010 7 299 0.0 3.2 0.00 0.91 0.00 89 1005.8
20260507101533 7 299 0.0 3.2 0.00 0.91 0.00 89 1006.1
20260507101008 7 299 0.0 3.2 0.00 0.91 0.00 90 1006.1
20260507100512 7 269 0.0 3.2 0.00 0.91 0.00 90 1005.9
20260507100026 7 269 0.0 3.2 0.00 0.91 0.00 90 1005.7
20260507095508 7 207 0.0 3.2 0.00 0.91 0.00 90 1005.9
20260507095012 7 207 0.0 3.2 0.00 0.91 0.00 90 1005.5
20260507094510 7 204 0.0 3.2 0.00 0.91 0.00 90 1005.6
20260507094010 7 283 0.0 3.2 0.00 0.91 0.00 90 1005.6
20260507093508 7 283 0.0 3.2 0.00 0.91 0.00 90 1005.7
20260507093019 7 283 0.0 3.2 0.00 0.91 0.00 90 1005.7
20260507092506 7 284 0.0 3.2 0.00 0.91 0.00 90 1005.7
20260507092009 7 283 0.0 3.2 0.00 0.91 0.00 90 1005.3
20260507091528 7 283 0.0 3.2 0.00 0.91 0.00 90 1005.4
20260507091010 7 283 0.0 3.2 0.00 0.91 0.00 90 1005.6
20260507090509 7 283 0.0 3.2 0.00 0.91 0.00 90 1005.3
20260507090025 7 283 0.0 3.2 0.00 0.91 0.00 90 1004.9
20260507085509 7 283 0.0 3.2 0.00 0.91 0.00 90 1005.0
20260507085011 7 283 0.0 3.2 0.00 0.91 0.00 90 1004.9
20260507084526 7 12 0.0 3.2 0.00 0.91 0.00 90 1005.3
20260507084008 7 288 0.0 3.2 0.00 0.91 0.00 89 1005.0
20260507083507 7 288 0.0 3.2 0.00 0.91 0.00 89 1004.9
20260507083016 7 277 0.0 3.2 0.00 0.91 0.00 89 1004.9
20260507082509 7 262 0.0 3.2 0.00 0.91 0.00 89 1004.8
20260507082008 8 292 0.0 6.4 0.00 0.91 0.00 89 1005.1
20260507081520 8 292 0.0 6.4 0.00 0.91 0.00 89 1005.4
20260507081009 8 268 0.0 3.2 0.00 0.91 0.00 89 1005.4
20260507080508 8 268 0.0 8.0 0.00 0.91 0.00 89 1005.3
20260507080024 8 268 1.6 8.0 0.00 0.91 0.00 89 1005.1
20260507075508 8 270 1.6 4.8 0.00 0.91 0.00 89 1005.1
20260507075012 8 262 0.0 3.2 0.00 0.91 0.00 89 1004.9
20260507074528 8 262 0.0 3.2 0.00 0.91 0.00 89 1004.8
20260507074009 8 262 0.0 3.2 0.00 0.91 0.00 89 1004.9
20260507073508 8 247 0.0 4.8 0.00 0.91 0.00 89 1004.8
20260507073027 8 247 0.0 4.8 0.00 0.91 0.00 89 1004.9
20260507072507 8 263 0.0 6.4 0.00 0.91 0.00 89 1004.7
20260507072007 8 225 3.2 6.4 0.00 0.91 0.00 89 1004.8
20260507071520 8 113 0.0 6.4 0.00 0.91 0.00 89 1004.6
20260507071008 8 184 1.6 6.4 0.00 0.91 0.00 89 1004.6
20260507070508 8 61 1.6 4.8 0.00 0.91 0.00 90 1004.8
20260507070035 8 224 0.0 4.8 0.00 0.91 0.00 90 1004.8
20260507065510 8 246 3.2 4.8 0.00 0.91 0.00 90 1004.7
20260507065010 8 67 0.0 4.8 0.00 0.91 0.00 89 1004.4
20260507064530 8 325 0.0 4.8 0.00 0.91 0.00 90 1004.4
20260507064004 8 145 0.0 4.8 0.00 0.91 0.00 90 1004.5
20260507063504 8 360 0.0 3.2 0.00 0.91 0.00 90 1004.6
20260507063007 9 360 0.0 3.2 0.00 0.91 0.00 90 1004.5
20260507062504 9 76 0.0 3.2 0.00 0.91 0.00 90 1004.6
20260507062005 9 275 0.0 4.8 0.00 0.91 0.00 90 1004.8
20260507061507 9 222 0.0 11.3 0.00 0.91 0.00 90 1004.8
20260507061004 9 269 0.0 11.3 0.00 0.91 0.00 90 1004.8
20260507060504 9 249 0.0 3.2 0.00 0.91 0.00 90 1004.4
20260507060013 9 271 1.6 3.2 0.00 0.91 0.00 90 1004.4
20260507055504 9 238 0.0 3.2 0.00 0.91 0.00 90 1004.3
20260507055002 9 275 0.0 4.8 0.00 0.91 0.00 90 1004.3
20260507054507 9 275 0.0 4.8 0.00 0.91 0.00 90 1004.4
20260507054004 9 288 0.0 11.3 0.00 0.91 0.00 90 1004.3
20260507053505 9 303 0.0 11.3 0.00 0.91 0.00 90 1004.5
20260507053007 9 165 1.6 6.4 0.00 0.91 0.00 90 1004.4
20260507052504 9 196 0.0 9.7 0.00 0.91 0.00 91 1004.4
20260507052007 9 252 0.0 11.3 0.00 0.91 0.00 91 1004.2
20260507051513 9 223 0.0 11.3 0.00 0.91 0.00 91 1004.1
20260507051005 10 234 1.6 9.7 0.00 0.91 0.00 91 1004.2
20260507050506 10 277 1.6 9.7 0.00 0.91 0.00 91 1004.2
20260507050020 10 269 3.2 16.1 0.00 0.91 0.00 91 1004.4
20260507045504 10 273 1.6 16.1 0.00 0.91 0.00 91 1004.4
20260507045005 10 282 3.2 11.3 0.00 0.91 0.00 91 1004.3
20260507044508 10 236 1.6 11.3 0.00 0.91 0.00 91 1004.3
20260507044010 10 277 1.6 8.0 0.00 0.91 0.00 91 1004.1
20260507043504 10 264 3.2 8.0 0.00 0.91 0.00 91 1004.2
20260507043007 10 313 3.2 8.0 0.00 0.91 0.00 91 1004.2
20260507042507 10 271 1.6 12.9 0.00 0.91 0.00 91 1004.3
20260507042007 10 253 1.6 12.9 0.00 0.91 0.00 91 1004.3
20260507041513 10 236 4.8 12.9 0.00 0.91 0.00 91 1004.1
20260507041006 10 259 3.2 9.7 0.00 0.91 0.00 91 1003.9
20260507040507 10 235 3.2 9.7 0.00 0.91 0.00 91 1003.9
20260507040009 11 274 1.6 16.1 0.00 0.91 0.00 91 1003.7
20260507035504 11 275 1.6 16.1 0.00 0.91 0.91 91 1003.8
20260507035008 11 258 1.6 11.3 0.00 0.91 0.91 91 1003.9
20260507034509 11 16 3.2 14.5 0.03 0.91 0.91 91 1004.0
20260507034003 12 280 1.6 14.5 0.03 0.91 0.91 91 1003.9
20260507033506 12 257 1.6 16.1 0.05 0.91 0.91 91 1003.7
20260507033013 13 265 1.6 19.3 0.08 0.91 0.91 92 1003.8
20260507032504 13 342 4.8 19.3 0.08 0.91 0.91 92 1003.8
20260507032004 13 255 0.0 12.9 0.08 0.91 0.91 92 1003.8
20260507031509 13 231 4.8 12.9 0.08 0.91 0.91 92 1003.7
20260507031009 13 252 3.2 11.3 0.08 0.91 0.91 92 1003.6
20260507030506 13 313 1.6 11.3 0.08 0.91 0.91 92 1003.5
20260507030012 14 238 4.8 14.5 0.08 0.91 0.91 92 1003.4
20260507025507 14 208 4.8 14.5 0.08 0.91 0.91 92 1003.3
20260507025005 14 220 1.6 14.5 0.08 0.91 0.91 92 1003.3
20260507024511 14 251 4.8 12.9 0.05 0.89 0.89 92 1003.3
20260507024007 14 256 8.0 12.9 0.05 0.89 0.89 92 1003.1
20260507023506 14 161 4.8 12.9 0.03 0.86 0.86 92 1003.2
20260507023013 14 207 4.8 12.9 0.00 0.84 0.84 92 1003.3
20260507022506 14 229 4.8 9.7 0.00 0.84 0.84 92 1003.2
20260507022007 14 217 4.8 9.7 0.00 0.84 0.84 92 1003.3
20260507021514 14 221 3.2 16.1 0.00 0.84 0.84 92 1003.3
20260507021006 14 219 3.2 16.1 0.00 0.84 0.84 92 1003.3
20260507020504 14 224 9.7 14.5 0.00 0.84 0.84 92 1003.4
20260507020012 14 244 3.2 12.9 0.00 0.84 0.84 92 1003.4
20260507015506 14 245 6.4 16.1 0.00 0.84 0.84 92 1003.5
20260507015008 14 225 3.2 17.7 0.00 0.84 0.84 92 1003.5
20260507014513 14 205 6.4 19.3 0.00 0.84 0.84 92 1003.6
20260507014007 14 238 8.0 19.3 0.00 0.84 0.84 92 1003.6
20260507013505 14 266 1.6 14.5 0.00 0.84 0.84 92 1003.5
20260507013017 14 236 6.4 16.1 0.00 0.84 0.84 92 1003.5
20260507012505 14 240 9.7 17.7 0.00 0.84 0.84 92 1003.5
20260507012007 14 202 4.8 17.7 0.00 0.84 0.84 92 1003.6
20260507011528 14 145 3.2 16.1 0.00 0.84 0.84 92 1003.5
20260507011009 14 202 4.8 16.1 0.00 0.84 0.84 92 1003.7
20260507010513 14 229 4.8 14.5 0.00 0.84 0.84 92 1003.6
20260507010008 14 218 3.2 14.5 0.00 0.84 0.84 92 1003.6
20260507005508 14 213 4.8 11.3 0.00 0.84 0.84 92 1003.6
20260507005005 14 204 4.8 11.3 0.00 0.84 0.84 92 1003.7
20260507004516 14 248 3.2 11.3 0.00 0.84 0.84 92 1003.6
20260507004006 14 264 6.4 11.3 0.00 0.84 0.84 92 1003.6
20260507003506 14 187 4.8 12.9 0.00 0.84 0.84 92 1003.6
20260507003016 14 206 4.8 12.9 0.00 0.84 0.84 92 1003.6
20260507002509 14 161 1.6 11.3 0.00 0.84 0.84 92 1003.5
20260507002011 14 236 3.2 12.9 0.00 0.84 0.84 92 1003.5
20260507001524 14 188 3.2 12.9 0.00 0.84 0.84 92 1003.5
20260507001007 14 256 3.2 11.3 0.00 0.84 0.84 92 1003.6
20260507000506 14 190 1.6 11.3 0.00 0.84 0.84 92 1003.4
20260507000019 14 159 3.2 11.3 0.00 0.84 0.84 92 1003.5
20260506235508 14 176 4.8 12.9 0.00 0.84 0.84 92 1003.4
20260506235007 14 230 3.2 11.3 0.00 0.84 0.84 92 1003.4
20260506234510 14 221 3.2 12.9 0.00 0.84 0.84 92 1003.6
20260506234008 14 209 4.8 12.9 0.00 0.84 0.84 92 1003.5
20260506233507 14 208 3.2 11.3 0.00 0.84 0.84 92 1003.5
20260506233019 14 224 4.8 17.7 0.00 0.84 0.84 92 1003.5
20260506232509 14 244 6.4 16.1 0.00 0.84 0.84 92 1003.6
20260506232006 15 242 1.6 12.9 0.00 0.84 0.84 92 1003.6
20260506231515 15 220 3.2 12.9 0.00 0.84 0.84 92 1003.5
20260506231006 15 281 4.8 12.9 0.00 0.84 0.84 92 1003.5
20260506230508 15 215 3.2 9.7 0.03 0.84 0.84 92 1003.7
20260506230020 15 211 4.8 14.5 0.03 0.84 0.84 92 1003.6
20260506225513 15 152 3.2 17.7 0.03 0.84 0.84 92 1003.7
20260506225013 15 207 6.4 17.7 0.05 0.84 0.84 92 1003.8
20260506224520 15 236 6.4 16.1 0.05 0.84 0.84 92 1003.7
20260506224009 15 152 4.8 16.1 0.08 0.84 0.84 92 1003.8